Lapse_Rate
7.3 7.2 6.9 6.8 6.6 7.1 6.9 6.4 6.3 5.8 5.3 5.0 5.1 5.2 5.5 5.0 5.3 5.0 4.9 4.8 4.8 4.9 5.0 5.2 5.3 5.4 5.4 5.4 5.2 5.3 5.4 5.6 5.7 5.6 5.6 5.8 5.8 5.9 6.1 6.1 6.1 6.0 5.9 5.9 5.9 5.9 5.9 5.9 5.9
7.4 7.2 6.9 6.6 7.7 7.8 6.6 6.1 5.6 5.1 5.1 5.5 5.0 4.9 5.0 5.2 5.3 4.9 4.8 4.8 4.8 4.9 5.0 5.2 5.1 5.2 5.3 5.4 5.3 5.5 5.5 5.5 5.6 5.8 5.9 6.0 6.0 6.0 6.1 6.0 6.0 6.0 6.0 5.9 5.8 5.8 5.7 5.8 5.9
7.9 7.6 6.7 7.0 7.2 6.9 6.4 5.7 5.2 4.8 4.7 5.1 5.2 5.3 5.2 5.0 4.9 5.0 4.9 4.9 4.8 4.8 5.1 5.2 5.0 4.9 5.2 5.3 5.3 5.3 5.4 5.5 5.7 5.9 6.1 6.1 6.1 6.1 6.2 6.0 5.9 6.0 5.9 5.9 5.8 5.9 5.7 5.8 6.0
7.9 7.7 6.9 7.5 7.0 6.0 5.9 5.6 5.3 5.1 4.8 4.6 5.0 5.4 5.2 5.0 5.0 5.0 5.0 5.1 4.9 5.0 4.9 5.0 5.0 5.0 5.1 5.3 5.4 5.4 5.4 5.5 5.7 6.0 6.1 6.3 6.2 6.3 6.2 6.2 6.0 6.0 6.0 6.1 5.9 5.8 5.7 5.8 5.9
7.9 7.5 7.9 7.5 6.6 5.9 5.4 5.2 5.1 5.1 4.7 4.8 5.1 5.2 5.2 5.0 5.0 5.1 5.1 5.1 5.1 5.0 5.1 5.0 5.1 5.3 5.3 5.4 5.5 5.5 5.5 5.7 5.7 5.8 5.9 6.2 6.3 6.3 6.2 6.2 6.2 6.1 6.0 5.9 5.9 5.8 5.7 5.8 5.9
7.9 7.5 8.4 7.8 6.8 5.9 5.3 5.0 5.1 4.9 5.1 5.1 5.2 5.4 5.0 5.0 4.9 5.0 5.0 5.1 4.8 5.1 4.9 5.1 5.1 5.2 5.3 5.5 5.5 5.4 5.7 5.9 5.8 5.9 6.1 6.3 6.4 6.5 6.3 6.4 6.3 6.1 6.1 6.0 5.9 6.0 5.9 5.8 5.8
7.6 8.5 7.7 7.6 6.8 6.2 5.3 5.0 5.1 5.0 5.0 5.1 5.5 5.3 5.1 5.1 4.9 5.0 5.1 5.0 4.9 4.9 5.1 5.2 5.2 5.1 5.3 5.6 5.8 5.8 6.0 6.1 6.1 6.1 6.2 6.4 6.4 6.4 6.3 6.3 6.2 6.1 6.1 6.0 6.0 6.0 5.9 6.0 5.9
7.7 7.8 7.9 7.6 7.3 6.2 5.2 4.9 4.7 5.0 5.2 5.3 5.1 5.3 5.4 4.9 4.8 5.0 4.9 5.0 5.0 5.0 5.3 5.0 4.9 5.4 5.5 5.7 5.7 5.9 6.1 6.4 6.4 6.4 6.3 6.4 6.5 6.5 6.4 6.2 6.2 6.3 6.3 6.1 6.1 6.1 6.0 5.8 5.8
8.0 9.3 8.2 7.6 7.4 6.2 5.4 5.1 5.2 5.0 5.1 5.2 5.4 5.6 5.5 5.1 5.0 5.0 4.9 5.0 4.8 4.9 4.9 4.7 5.0 5.2 5.2 5.3 5.3 5.8 5.9 6.2 6.5 6.6 6.3 6.4 6.6 6.6 6.6 6.5 6.5 6.4 6.4 6.3 6.1 6.0 5.9 5.8 5.8
8.3 9.2 7.5 7.1 6.8 6.1 5.5 5.3 5.6 5.1 5.5 5.6 5.5 5.5 5.5 5.2 4.8 4.9 5.0 5.0 5.1 5.0 5.0 5.0 5.0 5.0 5.1 5.2 5.3 5.7 5.6 5.9 6.6 6.6 6.3 6.2 6.2 6.3 6.1 6.1 6.1 6.2 6.4 6.4 6.4 6.2 5.9 5.8 5.8
8.2 8.4 7.8 7.0 6.5 6.1 5.9 6.2 6.0 5.3 5.4 5.6 5.5 5.4 5.4 5.3 4.8 4.9 4.8 5.0 4.9 4.7 4.6 5.0 4.9 5.1 5.2 5.1 5.2 5.3 5.3 5.7 6.2 6.6 6.5 6.1 6.2 6.3 6.2 6.1 6.1 6.2 6.2 6.3 6.4 6.3 6.4 6.4 6.3
8.6 7.8 7.7 7.1 6.4 6.2 6.0 6.3 6.3 5.5 5.9 5.8 5.5 5.2 5.3 5.4 5.3 5.3 5.0 4.8 4.9 4.8 4.6 4.7 5.0 5.0 4.8 4.8 5.1 5.3 5.3 5.8 6.1 6.5 6.5 6.4 6.4 6.2 6.1 6.0 6.0 6.0 6.0 6.0 5.9 6.1 6.1 6.3 6.4
8.3 8.2 8.1 7.5 7.3 7.0 6.8 6.3 6.5 6.2 6.1 5.8 5.6 5.3 5.2 5.2 5.2 5.0 4.9 4.7 4.8 4.8 4.8 4.9 5.0 4.8 4.7 4.7 5.0 5.3 5.5 5.7 5.7 6.2 6.1 6.2 6.1 6.0 5.8 5.9 5.9 6.0 5.8 5.6 5.5 5.9 6.3 6.3 6.1
8.8 8.5 8.0 7.4 7.6 7.4 6.5 6.8 6.3 6.5 6.3 5.9 5.7 5.6 5.3 5.2 5.3 5.0 5.1 5.0 4.9 4.7 4.6 4.7 4.7 4.6 4.7 4.6 4.9 4.9 5.1 5.4 5.6 5.9 6.0 6.0 6.0 6.0 6.0 5.9 5.8 5.9 5.8 6.0 6.0 5.7 6.1 5.9 5.9
9.0 8.7 8.1 7.6 7.3 7.6 6.9 6.8 6.8 6.8 6.7 6.2 5.9 5.9 5.7 5.5 5.3 5.0 4.9 4.8 4.5 4.4 4.5 4.6 4.5 4.5 4.5 4.6 4.7 4.9 5.2 5.3 5.5 5.7 5.8 5.7 5.7 5.8 6.0 6.0 5.7 5.7 5.9 5.7 5.6 5.8 5.7 5.5 5.4
8.7 8.9 9.2 8.4 7.9 8.0 7.1 7.8 7.1 7.0 6.9 6.6 6.2 6.1 6.1 5.8 5.5 5.2 5.0 4.9 4.8 4.7 4.7 4.4 4.2 4.5 4.6 4.8 5.0 5.2 5.3 5.3 5.4 5.5 5.6 5.6 5.9 6.0 5.9 5.6 5.7 5.8 5.8 5.7 5.6 5.7 5.6 5.7 5.7
9.0 9.5 9.3 8.4 8.4 8.0 7.9 7.7 7.9 7.3 7.2 6.9 6.6 6.4 6.2 6.1 6.1 5.9 5.5 5.3 5.1 4.8 4.6 4.4 4.2 4.3 4.6 4.8 5.0 5.2 5.2 5.3 5.3 5.5 5.7 5.7 6.1 6.1 5.9 5.9 5.8 5.8 5.6 5.6 5.6 5.5 6.0 6.1 5.9
9.6 9.5 9.3 9.0 8.4 8.4 8.0 7.9 8.4 8.1 7.5 7.2 7.0 6.7 6.6 6.4 6.4 6.4 6.3 6.1 5.8 5.5 5.3 5.3 5.2 5.2 5.2 5.2 5.3 5.3 5.5 5.6 5.7 5.9 5.8 5.9 6.2 6.2 6.2 6.1 6.0 5.8 5.6 5.5 5.5 6.0 5.9 5.8 5.6
9.6 9.5 9.4 9.0 8.4 8.2 8.4 8.3 7.7 8.1 8.0 7.6 7.1 6.9 6.7 6.6 6.5 6.6 6.6 6.4 6.4 6.2 6.1 5.9 5.8 5.6 5.6 5.7 5.7 5.6 5.8 5.8 5.6 5.6 5.7 6.0 6.2 6.2 6.4 6.6 6.0 5.8 5.9 5.8 5.9 5.9 5.9 5.7 5.6
9.1 9.2 9.2 8.9 8.5 8.3 8.6 8.4 8.0 7.7 7.9 7.9 7.6 7.4 7.0 6.8 6.7 6.7 6.6 6.5 6.5 6.5 6.4 6.2 6.1 6.1 5.8 5.7 5.6 6.2 5.9 6.0 5.9 5.6 5.6 5.4 5.3 5.6 6.0 5.8 6.1 6.3 6.3 6.3 6.0 5.9 5.7 5.8 6.0
9.2 9.3 9.2 9.2 8.6 8.4 8.3 8.4 8.3 7.9 7.9 7.9 7.9 7.5 7.6 7.3 7.1 6.8 6.6 6.6 6.7 6.7 6.6 6.5 6.2 6.1 6.1 6.1 5.8 6.2 6.3 6.2 5.9 5.8 5.8 5.7 5.8 5.6 5.7 5.6 5.6 5.7 5.9 5.9 6.0 6.0 5.9 5.8 6.1
9.6 9.1 8.9 8.9 8.9 9.7 8.8 9.5 8.7 8.3 8.4 8.2 8.0 7.8 7.6 7.8 7.4 7.2 6.9 7.0 7.1 7.0 6.7 6.7 6.8 6.8 6.7 6.5 6.4 6.3 6.3 6.1 5.7 5.8 6.1 6.4 6.6 6.3 5.9 6.0 6.0 5.9 5.9 6.2 6.4 6.4 6.7 6.6 6.4
9.6 9.0 8.8 8.8 9.0 9.1 8.8 9.3 8.7 8.7 8.3 8.3 8.2 7.9 7.7 7.8 7.7 7.5 7.4 7.1 7.3 7.4 7.0 6.9 7.0 6.8 6.7 6.7 6.7 6.6 6.4 6.1 6.0 5.9 6.0 6.2 6.4 6.2 6.1 6.2 6.0 5.9 6.1 6.1 6.5 6.7 6.8 6.5 6.6
8.7 8.7 8.6 8.7 9.3 9.4 9.6 9.4 9.3 9.0 8.9 8.6 8.4 8.3 8.0 7.9 7.7 7.5 7.6 7.6 7.7 7.6 7.3 7.0 7.1 7.0 7.1 6.9 6.9 6.6 6.5 6.4 6.1 6.1 6.0 6.0 5.9 5.8 6.0 6.0 6.0 5.8 6.0 6.2 6.1 5.9 6.1 6.3 6.3
8.5 8.9 9.3 9.6 9.8 9.8 9.0 9.3 9.6 9.7 9.2 9.0 8.7 8.4 8.0 8.0 7.9 7.7 7.8 7.8 7.7 7.7 7.5 7.4 7.2 7.1 7.2 7.1 6.9 6.8 6.5 6.4 6.4 6.2 6.4 6.1 6.0 5.9 6.0 5.9 5.8 5.8 6.0 5.8 5.7 5.7 5.5 5.4 5.7
8.5 9.3 9.6 9.5 9.9 9.8 8.5 9.6 9.6 9.5 9.3 9.1 9.0 8.7 8.3 8.1 8.0 7.9 8.1 8.1 7.9 7.8 7.8 7.8 7.6 7.5 7.3 7.2 7.1 7.1 6.9 6.8 6.5 6.3 6.1 6.1 6.0 6.0 6.0 6.0 5.9 5.9 5.9 5.8 5.6 5.5 5.4 5.4 5.5
8.5 8.8 9.6 9.7 9.3 9.8 9.5 9.4 9.2 9.3 9.2 9.0 9.2 8.8 8.6 8.4 8.3 8.1 8.3 8.3 8.2 8.0 7.9 7.8 7.7 7.5 7.4 7.3 7.2 7.2 7.1 6.9 6.6 6.5 6.5 6.2 6.3 6.0 6.0 5.8 5.7 5.7 5.6 5.5 5.5 5.6 5.6 5.8 5.8
8.7 8.8 9.0 9.4 9.7 9.6 9.6 9.6 9.7 9.4 9.5 9.2 9.3 9.4 9.1 8.9 8.7 8.5 8.2 8.2 8.2 8.1 8.0 7.9 7.8 7.6 7.6 7.6 7.5 7.4 7.2 7.0 6.9 6.9 6.7 6.5 6.2 5.9 5.8 5.8 5.8 5.8 5.7 5.6 5.6 5.7 5.9 5.9 6.0
7.8 8.9 9.1 9.6 9.6 9.9 9.9 9.6 9.4 9.1 9.0 9.2 9.4 9.3 8.9 8.9 9.0 8.7 8.6 8.5 8.3 8.3 8.2 8.1 7.9 7.7 7.7 7.6 7.6 7.4 7.2 7.0 7.0 6.9 6.7 6.4 6.1 5.9 5.8 5.8 5.8 6.1 6.0 5.9 5.9 5.9 6.0 5.9 5.8
8.5 8.7 8.8 9.5 8.8 9.2 9.4 9.8 9.1 8.9 8.9 9.3 9.3 9.2 9.0 9.0 9.0 8.9 8.7 8.6 8.6 8.5 8.4 8.1 7.9 7.8 7.8 7.7 7.5 7.1 6.9 6.9 6.8 6.7 6.5 6.2 6.0 6.0 5.8 5.9 6.1 6.0 5.7 5.7 5.8 5.8 5.9 5.9 6.0
Wind_Speed
8 9 3 5 5 3 10 8 4 7 9 9 6 8 13 13 5 7 6 10 9 6 10 20 21 22 23 21 20 20 17 17 17 16 16 15 14 13 15 16 16 15 15 15 15 15 15 14 15
7 5 4 5 3 7 9 9 12 11 10 7 10 8 9 7 7 11 6 9 11 7 11 18 20 20 20 19 18 17 18 17 16 18 15 16 14 14 14 14 16 14 13 15 14 14 13 13 12
7 5 5 2 10 10 9 9 9 8 5 4 5 11 6 4 12 4 11 11 7 10 16 19 18 18 18 18 17 17 17 16 16 16 15 15 14 13 13 15 15 13 13 15 13 12 10 9 8
5 5 5 9 14 12 10 8 6 8 8 8 11 10 8 5 6 12 12 16 8 9 17 15 16 17 16 16 16 16 16 15 16 15 14 13 15 12 14 14 14 14 12 11 10 9 8 7 7
6 4 4 9 13 11 10 8 4 6 6 7 6 9 6 9 20 18 16 10 14 9 13 13 13 14 16 16 16 16 15 15 15 14 13 14 14 14 13 14 13 12 10 9 8 8 7 6 7
4 5 6 9 10 7 8 5 3 11 10 13 13 10 4 13 18 18 11 13 14 8 10 13 13 14 14 15 16 15 15 15 15 13 13 13 12 13 12 12 11 10 8 7 5 5 5 5 5
6 6 7 7 7 8 8 6 8 9 10 8 12 6 4 13 15 19 14 10 14 10 8 7 8 15 14 16 16 16 16 15 15 13 12 11 10 10 9 8 7 6 6 4 3 3 4 4 5
5 4 3 5 6 10 8 8 5 8 13 11 13 6 6 10 14 17 16 13 11 8 6 7 8 10 13 14 15 15 17 16 15 12 10 10 9 7 6 6 6 3 2 2 2 3 5 7 6
4 1 9 8 9 8 9 9 6 3 10 6 6 16 15 16 14 18 16 13 9 2 3 5 7 9 10 13 15 12 15 14 14 12 7 10 6 7 7 7 2 1 1 1 1 2 3 7 10
5 9 11 8 8 10 7 4 9 7 10 9 14 20 19 16 14 13 16 13 11 10 3 3 7 7 11 10 9 10 8 8 9 7 4 3 5 4 3 3 2 2 2 4 2 2 5 10 4
2 10 10 13 13 11 11 8 5 8 7 12 18 19 17 16 14 15 16 17 17 15 10 7 10 8 8 7 7 6 6 6 7 6 3 3 1 3 1 1 4 2 4 4 5 8 4 2 6
7 9 11 12 12 11 10 10 8 3 12 15 17 17 16 16 14 12 14 10 13 16 14 12 11 6 7 4 5 5 7 5 4 6 3 3 2 1 3 3 4 1 1 2 2 3 3 4 4
12 13 14 13 13 12 11 9 11 14 14 15 16 14 15 13 13 13 13 15 16 15 12 13 11 6 5 5 4 4 4 3 4 2 4 5 4 4 3 4 5 4 3 3 4 3 3 4 3
9 16 14 13 12 12 12 12 6 10 14 13 13 15 14 14 15 14 15 14 15 13 13 11 9 8 5 3 2 1 3 3 3 4 6 6 7 6 7 5 6 4 5 6 6 6 7 6 6
16 16 12 10 7 9 6 10 12 13 14 13 11 10 11 12 12 12 13 14 14 12 13 12 10 9 5 3 3 1 1 4 3 4 5 7 8 9 8 7 6 5 3 4 3 6 5 6 7
6 11 8 9 4 6 8 10 12 13 13 13 12 11 12 13 13 13 13 14 14 14 14 13 11 10 8 5 4 3 4 5 4 5 6 7 9 9 9 6 5 4 5 6 4 4 5 6 6
9 8 4 7 7 3 6 10 13 13 11 11 12 12 11 12 13 13 13 14 14 14 13 12 11 10 8 7 7 6 7 8 6 8 8 7 9 8 7 7 7 5 1 4 4 5 3 4 4
9 6 7 5 9 8 5 7 13 14 12 10 11 11 12 12 14 14 14 13 14 14 14 13 11 11 9 7 6 8 7 8 9 8 9 9 9 9 5 8 5 3 3 4 3 3 5 3 4
2 3 2 4 7 7 7 4 12 14 13 12 11 11 11 11 12 14 15 14 13 14 15 15 14 12 9 8 8 8 8 7 6 8 9 10 8 8 7 6 5 4 4 4 4 4 3 2 3
7 6 4 4 4 9 6 8 10 14 13 12 13 13 13 13 13 14 14 14 15 16 16 16 16 15 12 10 8 8 6 6 6 7 8 8 8 7 8 6 5 4 3 5 6 5 4 3 1
9 7 3 6 2 11 4 11 13 13 12 12 12 12 14 15 15 15 15 15 15 15 16 16 16 16 14 14 9 8 7 8 8 8 7 7 8 8 8 8 6 4 5 4 4 5 4 6 3
12 8 5 4 7 3 9 6 12 15 15 16 16 15 15 16 15 15 16 16 16 15 14 15 15 15 14 14 12 12 10 9 7 6 5 5 6 9 10 10 8 7 5 4 5 5 6 4 7
11 3 5 5 10 6 9 8 8 14 14 18 18 18 17 17 17 17 18 17 16 15 15 14 14 14 13 13 14 11 12 9 8 7 5 7 6 10 10 11 8 6 5 5 6 6 6 6 7
8 7 5 7 7 9 10 11 13 10 16 18 20 19 18 19 19 18 17 17 16 16 16 14 14 14 14 14 14 14 12 10 8 6 6 7 6 6 7 8 8 7 5 6 7 7 8 9 9
16 14 9 8 7 5 5 8 2 7 10 8 19 22 21 20 19 19 19 18 18 18 17 16 16 15 15 15 14 12 14 12 12 10 9 8 8 7 5 5 5 5 5 6 7 7 9 9 9
19 19 11 12 11 7 5 8 6 3 3 7 12 19 23 21 20 20 21 19 19 19 19 18 17 16 16 16 15 13 14 7 10 11 9 8 7 7 5 7 6 6 6 7 6 7 8 9 9
18 21 21 14 2 5 10 7 8 12 10 9 13 17 21 22 21 21 20 20 18 18 19 19 17 16 16 16 14 14 13 13 12 10 9 8 7 6 6 5 4 5 6 7 9 9 11 10 11
14 20 12 10 11 13 8 9 6 9 5 3 11 17 17 18 21 20 19 19 18 18 17 17 17 16 15 14 13 11 11 11 11 10 10 9 6 5 4 5 5 7 8 9 10 10 10 9 8
10 13 14 14 14 11 7 10 9 6 1 3 10 15 17 17 17 18 17 16 16 15 15 15 14 13 12 10 9 9 8 8 7 7 7 3 3 3 4 6 6 8 9 8 7 7 9 8 11
24 21 20 11 11 12 9 4 7 6 4 3 7 13 14 15 14 14 13 14 14 14 13 12 10 10 9 8 7 7 6 5 5 4 4 3 3 4 6 6 7 6 4 5 6 8 9 10 11
Wind_Direction
188 179 206 227 227 100 56 73 60 105 83 53 57 63 82 56 48 98 94 105 111 141 133 113 109 111 111 113 116 113 117 116 111 101 97 101 99 96 97 87 87 85 82 82 81 85 87 86 86
172 166 224 274 335 75 65 48 72 67 100 90 70 98 69 73 66 114 111 120 114 133 122 112 110 109 112 116 116 120 117 113 108 103 99 98 99 95 94 94 90 89 93 91 87 87 88 89 89
175 234 268 249 43 44 72 75 85 84 58 111 110 67 56 81 105 83 110 115 117 132 118 110 103 106 112 112 110 114 113 113 108 103 104 103 100 100 99 93 93 91 82 84 87 88 85 83 80
185 196 224 47 61 55 66 83 95 113 86 75 100 81 99 28 94 117 121 114 89 74 105 107 107 112 111 109 110 110 108 105 102 101 106 103 97 94 96 101 96 88 83 82 80 80 76 66 60
236 260 89 71 72 66 71 68 46 86 87 102 102 100 69 73 103 113 113 118 113 107 88 101 101 108 112 109 109 108 107 106 103 105 103 97 103 101 98 97 96 89 79 71 69 59 53 47 37
241 275 39 50 79 76 65 76 161 87 95 107 98 95 70 126 111 112 95 103 103 80 85 100 109 107 111 110 111 111 107 105 108 111 107 104 105 100 101 98 95 90 86 77 62 48 30 29 27
293 302 40 46 88 86 79 100 116 114 120 101 138 99 90 102 112 118 109 103 115 85 80 80 112 112 108 111 111 109 107 101 104 102 104 105 104 100 101 98 97 100 100 93 68 26 3 343 341
298 269 146 46 59 94 121 102 98 97 87 113 142 144 140 131 125 119 118 109 98 84 81 84 78 95 109 107 105 111 111 109 103 101 101 113 116 120 119 151 115 85 92 99 50 1 330 323 311
269 179 59 41 38 118 135 120 97 114 124 75 41 132 123 136 131 135 126 122 97 47 81 76 87 121 114 119 113 120 107 116 123 127 138 187 118 131 157 73 79 117 227 197 151 287 312 286 250
283 58 51 46 76 123 127 107 130 147 129 107 102 109 132 144 143 144 149 140 146 158 175 168 134 137 135 127 146 121 136 105 105 98 101 101 84 74 16 129 170 245 271 257 220 219 247 246 321
45 53 81 75 95 117 116 111 125 132 144 151 140 141 145 154 162 170 157 168 165 160 162 180 170 155 136 132 137 138 105 96 107 106 94 79 35 73 132 104 179 203 170 236 213 201 230 338 322
107 67 97 106 109 118 103 122 95 21 86 119 139 148 151 165 171 173 162 162 169 172 185 186 157 132 130 132 186 132 123 128 91 65 23 36 284 48 350 348 340 253 339 317 274 335 343 305 291
105 96 100 101 94 102 118 95 97 93 105 121 140 145 158 165 175 187 167 179 169 180 177 194 158 162 163 193 96 79 87 38 64 81 43 353 330 336 317 347 306 304 277 283 284 271 294 306 265
115 116 115 112 110 117 110 130 131 114 123 132 148 160 173 170 186 180 174 191 181 184 182 184 193 186 190 189 99 253 62 47 27 26 10 335 324 321 311 311 299 322 335 331 303 342 324 331 335
129 120 121 121 131 129 128 112 99 138 140 147 161 162 171 180 189 187 187 188 189 185 188 197 202 206 206 226 189 268 342 341 352 352 333 325 306 319 318 326 301 328 324 293 312 314 301 313 310
172 178 165 143 172 151 272 115 142 159 160 157 174 178 183 186 190 193 185 190 189 197 195 202 208 202 209 227 256 277 293 300 313 316 300 306 314 318 316 313 320 310 2 332 311 358 335 339 327
202 138 125 163 202 143 283 119 154 173 174 166 175 182 187 183 194 193 191 192 193 200 196 208 218 224 225 229 264 266 273 276 292 298 302 311 309 319 308 301 317 304 335 285 287 304 313 320 315
164 138 174 163 185 215 184 104 158 181 184 183 181 180 185 188 188 187 191 193 192 192 203 209 216 219 223 238 235 259 268 269 269 279 294 303 304 312 306 300 309 312 247 264 267 302 314 302 329
232 246 187 163 140 214 239 159 169 183 195 190 193 190 193 192 177 179 184 186 192 195 200 207 210 218 216 221 227 235 251 255 260 273 276 281 287 297 299 285 271 259 259 284 257 260 248 272 6
192 197 189 98 159 222 216 235 168 183 205 202 196 196 197 189 182 181 179 186 194 195 201 203 211 209 212 216 227 244 256 258 270 284 271 275 275 271 285 289 278 242 242 221 215 226 261 246 306
216 230 143 315 186 224 261 226 208 190 201 210 211 202 197 199 191 187 185 193 195 200 199 204 207 211 213 222 216 222 246 249 251 250 251 253 267 274 282 275 274 271 260 211 214 224 259 305 302
231 195 257 224 248 293 209 113 191 192 200 209 213 207 204 201 200 192 191 197 200 199 199 205 205 208 210 208 221 222 237 246 252 252 256 276 264 283 281 270 253 233 254 260 225 228 269 254 289
247 169 227 232 249 281 197 267 118 190 200 207 215 213 206 199 201 201 196 198 201 202 198 201 202 206 212 206 225 221 232 246 241 253 255 263 279 270 283 288 265 245 256 246 266 259 245 271 262
161 176 188 230 256 232 168 242 150 175 218 209 205 211 209 201 199 202 200 198 201 204 201 199 199 206 204 208 208 223 240 240 255 244 262 272 275 271 262 277 277 271 260 251 256 242 246 260 279
196 208 216 226 204 241 148 216 216 171 160 208 201 203 211 199 199 199 201 200 200 205 206 201 203 209 207 208 214 215 227 235 250 254 258 276 269 258 257 242 249 269 270 272 273 273 275 267 268
205 221 222 207 213 164 150 216 219 216 120 196 216 205 203 203 196 203 201 202 203 204 205 207 202 210 210 211 212 217 226 229 234 235 253 265 261 267 256 246 239 252 261 273 267 270 268 281 272
202 224 230 263 286 249 168 214 271 238 238 206 204 207 203 200 200 201 201 202 206 206 208 208 210 207 212 214 213 217 222 229 244 251 257 248 256 274 253 247 254 268 259 266 280 275 284 287 283
209 207 205 233 227 230 165 216 221 175 177 162 198 194 190 201 199 202 204 202 204 209 209 210 212 212 213 217 215 218 221 228 237 247 253 265 275 254 253 259 281 290 290 285 278 291 293 295 291
191 204 223 236 233 219 218 201 204 229 264 78 158 178 182 189 196 202 204 204 205 210 206 211 209 214 213 217 220 224 227 225 231 242 244 248 253 252 280 279 284 286 291 291 294 289 296 307 303
202 202 206 221 193 253 298 227 146 209 236 176 156 170 175 182 183 191 194 197 197 212 207 208 210 206 210 209 209 215 219 214 210 214 138 194 232 255 273 290 287 304 308 318 304 297 307 299 304